Home > Weather > Amarillo > Past weeks

Flag for U.S.A. Weather for the Past 2 Weeks in Amarillo, Texas, U.S.A.

Now
53 °F

Sunny.


Feels Like: 48 °F
Forecast: 26 / 52 °F
Wind: 18 mph from Northwest

Location: Amarillo International Airport

Current Time: Feb 8, 2016 at 4:13:58 PM

Latest Report: Feb 8, 2016 at 2:53 PM


Visibility: 10 mi

Pressure: 30.35 "Hg (26.55 "Hg at 1117m altitude)

Humidity: 26%

Dew point: 19 °F

Location of AmarilloLocation

Historic Weather in Amarillo — Graph

°F

Amarillo Temperature Yesterday

Maximum temperature yesterday: 57 °F (at 1:53 PM)
Minimum temperature yesterday: 25 °F (at 3:53 AM)
Average temperature yesterday: 40 °F

High & Low Weather Summary for the Past Weeks

 TemperatureHumidityPressure
High78 °F (Jan 30, 2:53 PM)89% (Jan 26, 5:53 AM)30.50 "Hg (Jan 26, 5:53 AM)
Low15 °F (Feb 3, 7:53 AM)11% (Jan 24, 2:53 PM)29.44 "Hg (Feb 2, 2:53 AM)
Average40 °F51%30.04 "Hg
* Reported Jan 24 1:53 PM — Feb 8 1:53 PM, Amarillo, Weather by CustomWeather, © 2016

Note: Actual official high and low records may vary slightly from our data, if they occured in-between our weather recording intervals... More about our weather records

Advertising

Amarillo Weather History for the Previous 24 Hours

 ConditionsComfort  
Time TempWeatherWind HumidityBarometerVisibility
1:53 PM
Mon, Feb 8
52 °FSunny.22 mph25%30.38 "Hg10 mi
12:53 PM50 °FSunny.18 mph27%30.42 "Hg10 mi
11:53 AM48 °FSunny.17 mph27%30.47 "Hg10 mi
10:53 AM42 °FSunny.14 mph32%30.50 "Hg10 mi
9:53 AM35 °FSunny.16 mph42%30.49 "Hg10 mi
8:53 AM29 °FSunny.14 mph54%30.49 "Hg10 mi
7:53 AM24 °FSunny.14 mph62%30.48 "Hg10 mi
6:53 AM23 °FClear.13 mph65%30.46 "Hg10 mi
5:53 AM25 °FClear.12 mph63%30.44 "Hg10 mi
4:53 AM26 °FClear.14 mph57%30.41 "Hg10 mi
3:53 AM26 °FClear.13 mph57%30.42 "Hg10 mi
2:53 AM27 °FClear.10 mph53%30.42 "Hg10 mi
1:53 AM30 °FClear.9 mph47%30.41 "Hg10 mi
12:53 AM30 °FClear.13 mph49%30.41 "Hg10 mi
11:53 PM
Sun, Feb 7
26 °FClear.12 mph55%30.43 "Hg10 mi
10:53 PM30 °FClear.12 mph49%30.42 "Hg10 mi
9:53 PM32 °FClear.14 mph52%30.40 "Hg10 mi
8:53 PM35 °FClear.14 mph46%30.40 "Hg10 mi
7:53 PM37 °FClear.12 mph48%30.36 "Hg10 mi
6:53 PM40 °FClear.10 mph41%30.32 "Hg10 mi
5:53 PM50 °FSunny.15 mph30%30.24 "Hg10 mi
4:53 PM54 °FSunny.15 mph26%30.22 "Hg10 mi
Weather by CustomWeather, © 2016

See weather overviewHow to use our weather pages